sat.trackr.live / text

‹ back to catalog

NORBI

NORAD 46494 · 2020-068J

PAYLOAD ACTIVE UNKNOWN

§ Identity

Operator
Country
CIS
Launch date
2020-09-28
Launch site
PLMSC
Launch vehicle
Mass (kg)
RCS (m²)

External: N2YO · Heavens-Above · Gunter

§ Orbital elements

Epoch: 2026-09-20T05:25:21.191808Z

Period
92.76 min
Inclination
97.8595°
Eccentricity
0.0003474
Mean motion
15.52322968 rev/d
Perigee alt
407.6 km
Apogee alt
412.3 km
Semi-major
6,788.1 km
B*
3.0466e-4
RAAN
287.8433°
Arg perigee
258.6369°
Mean anomaly
101.4492°
Rev number
33,093

§ Raw data

NORBI1 46494U 20068J   26263.22593972  .00018454  00000+0  30466-3 0  99942 46494  97.8595 287.8433 0003474 258.6369 101.4492 15.52322968330936

JSON: /api/v1/satellites/46494 · /tle

For live sub-satellite position, see the globe view (requires WebGL).

§ Visibility from observer

Set your observer location to see the next 7 days of passes ≥ 10°. The values pass through the URL so the page stays shareable.

No JS? Fill the form by hand. The geolocation button needs JavaScript.

§ Radio — SatNOGS DB

ModeDescriptionDownlinkUplink
GFSK Mode U - GFSK9k6 436.700 MHz
LoRa Mode U - LoRa 436.703 MHz

2 transmitters · refreshed weekly from db.satnogs.org